FW9002 Weather Reports


Display with metric or nautical units.
time (UTC)temp
F
wind
direction
speed
MPH
gust
MPH
rain 1hr
in
rain 24hr
in
rain mn
in
humidity
%
barometer
mb
20260507185433 87 69 2.0 2.0 0.00 0.00 0.00 13 1011.7
20260507184930 87 228 1.0 1.0 0.00 0.00 0.00 12 1011.7
20260507184428 87 282 3.0 3.0 0.00 0.00 0.00 15 1012.0
20260507183926 86 254 4.0 5.0 0.00 0.00 0.00 14 1011.9
20260507183422 86 290 2.0 2.0 0.00 0.00 0.00 15 1011.9
20260507182920 85 86 1.0 1.0 0.00 0.00 0.00 16 1012.2
20260507182415 85 256 3.0 2.0 0.00 0.00 0.00 15 1012.1
20260507181912 84 351 2.0 3.0 0.00 0.00 0.00 16 1012.2
20260507181408 84 13 1.0 2.0 0.00 0.00 0.00 16 1012.6
20260507180905 85 287 2.0 2.0 0.00 0.00 0.00 17 1012.5
20260507180401 84 71 1.0 2.0 0.00 0.00 0.00 16 1012.6
20260507175857 84 63 1.0 1.0 0.00 0.00 0.00 17 1012.6
20260507175354 84 353 3.0 3.0 0.00 0.00 0.00 16 1012.8
20260507174852 84 95 2.0 2.0 0.00 0.00 0.00 17 1012.7
20260507174349 83 100 1.0 1.0 0.00 0.00 0.00 18 1013.0
20260507173847 83 323 0.0 0.0 0.00 0.00 0.00 18 1013.2
20260507173343 83 34 2.0 2.0 0.00 0.00 0.00 20 1013.0
20260507172839 82 269 1.0 1.0 0.00 0.00 0.00 18 1013.0
20260507172336 82 128 2.0 2.0 0.00 0.00 0.00 17 1013.1
20260507171832 80 63 1.0 1.0 0.00 0.00 0.00 19 1013.1
20260507171329 80 239 2.0 2.0 0.00 0.00 0.00 18 1013.1
20260507170826 80 264 2.0 2.0 0.00 0.00 0.00 19 1013.2
20260507170323 81 309 2.0 2.0 0.00 0.00 0.00 19 1013.2
20260507165819 80 3 0.0 1.0 0.00 0.00 0.00 19 1013.2
20260507165315 78 55 1.0 1.0 0.00 0.00 0.00 21 1013.2
20260507164811 78 237 2.0 2.0 0.00 0.00 0.00 20 1013.6
20260507164308 77 210 0.0 0.0 0.00 0.00 0.00 20 1013.5
20260507163805 79 236 3.0 2.0 0.00 0.00 0.00 20 1013.3
20260507163303 79 53 0.0 0.0 0.00 0.00 0.00 22 1013.4
20260507162759 77 79 0.0 0.0 0.00 0.00 0.00 22 1013.3
20260507162255 76 181 1.0 1.0 0.00 0.00 0.00 21 1013.6
20260507161752 77 251 1.0 1.0 0.00 0.00 0.00 21 1013.6
20260507161248 77 233 2.0 2.0 0.00 0.00 0.00 21 1013.6
20260507160744 77 208 1.0 1.0 0.00 0.00 0.00 21 1013.6
20260507160241 75 54 1.0 1.0 0.00 0.00 0.00 22 1013.9
20260507155737 75 74 0.0 1.0 0.00 0.00 0.00 23 1014.0
20260507155233 74 76 0.0 0.0 0.00 0.00 0.00 23 1014.0
20260507154730 74 358 2.0 2.0 0.00 0.00 0.00 24 1013.9
20260507154228 75 53 1.0 1.0 0.00 0.00 0.00 24 1014.0
20260507153724 74 95 0.0 0.0 0.00 0.00 0.00 24 1013.9
20260507153220 74 83 1.0 0.0 0.00 0.00 0.00 25 1014.1
20260507152717 73 80 0.0 0.0 0.00 0.00 0.00 26 1013.9
20260507152213 72 90 0.0 0.0 0.00 0.00 0.00 26 1014.1
20260507151709 73 66 0.0 0.0 0.00 0.00 0.00 25 1014.2
20260507151206 72 88 0.0 0.0 0.00 0.00 0.00 27 1014.1
20260507150703 70 175 0.0 0.0 0.00 0.00 0.00 28 1014.2
20260507150200 71 176 1.0 1.0 0.00 0.00 0.00 28 1014.1
20260507145655 71 68 1.0 1.0 0.00 0.00 0.00 29 1014.1
20260507145152 71 69 0.0 0.0 0.00 0.00 0.00 30 1014.4
20260507144649 69 68 0.0 0.0 0.00 0.00 0.00 31 1014.3
20260507144147 69 55 1.0 1.0 0.00 0.00 0.00 31 1014.2
20260507143644 69 81 1.0 2.0 0.00 0.00 0.00 31 1014.2
20260507143141 68 90 0.0 0.0 0.00 0.00 0.00 33 1014.3
20260507142636 67 96 0.0 0.0 0.00 0.00 0.00 34 1014.3
20260507142133 66 98 0.0 0.0 0.00 0.00 0.00 35 1014.2
20260507141629 65 107 0.0 0.0 0.00 0.00 0.00 35 1014.4
20260507141126 65 99 0.0 0.0 0.00 0.00 0.00 36 1014.5
20260507140623 64 101 1.0 1.0 0.00 0.00 0.00 37 1014.2
20260507140120 63 91 0.0 0.0 0.00 0.00 0.00 41 1014.3
20260507135617 62 91 0.0 0.0 0.00 0.00 0.00 42 1014.2
20260507135115 61 91 0.0 0.0 0.00 0.00 0.00 44 1014.6
20260507134611 60 90 0.0 0.0 0.00 0.00 0.00 46 1014.3
20260507134107 60 75 0.0 0.0 0.00 0.00 0.00 48 1014.3
20260507133603 59 70 1.0 1.0 0.00 0.00 0.00 50 1014.1
20260507133101 59 72 0.0 0.0 0.00 0.00 0.00 52 1014.3
20260507132557 58 72 0.0 0.0 0.00 0.00 0.00 50 1014.2
20260507132054 58 76 1.0 1.0 0.00 0.00 0.00 50 1014.1
20260507131551 57 129 0.0 0.0 0.00 0.00 0.00 49 1014.1
20260507131048 56 130 0.0 0.0 0.00 0.00 0.00 50 1014.0
20260507130545 54 136 0.0 0.0 0.00 0.00 0.00 51 1013.9
20260507130043 53 155 0.0 0.0 0.00 0.00 0.00 55 1013.9
20260507125541 52 158 0.0 0.0 0.00 0.00 0.00 58 1013.9
20260507125038 53 91 0.0 0.0 0.00 0.00 0.00 58 1013.8
20260507124534 52 91 0.0 0.0 0.00 0.00 0.00 56 1014.0
20260507124032 53 91 0.0 0.0 0.00 0.00 0.00 57 1013.8
20260507123530 53 92 0.0 0.0 0.00 0.00 0.00 57 1014.0
20260507123027 53 92 0.0 0.0 0.00 0.00 0.00 55 1013.8
20260507122522 53 92 0.0 0.0 0.00 0.00 0.00 55 1013.5
20260507122018 52 92 0.0 0.0 0.00 0.00 0.00 57 1013.9
20260507121514 51 92 0.0 0.0 0.00 0.00 0.00 60 1013.6
20260507121010 51 91 0.0 0.0 0.00 0.00 0.00 58 1014.0
20260507120506 51 91 0.0 0.0 0.00 0.00 0.00 58 1013.8
20260507120004 51 91 0.0 0.0 0.00 0.00 0.00 58 1013.6
20260507115459 51 91 0.0 0.0 0.00 0.00 0.00 57 1013.9
20260507114955 52 91 0.0 0.0 0.00 0.00 0.00 55 1013.9
20260507114452 53 91 0.0 0.0 0.00 0.00 0.00 56 1013.9
20260507113949 53 91 0.0 0.0 0.00 0.00 0.00 53 1013.8
20260507113446 53 91 0.0 0.0 0.00 0.00 0.00 53 1013.8
20260507112943 54 94 0.0 0.0 0.00 0.00 0.00 55 1013.8
20260507112441 54 94 0.0 0.0 0.00 0.00 0.00 53 1013.9
20260507111937 55 96 0.0 0.0 0.00 0.00 0.00 51 1013.9
20260507111435 55 96 0.0 0.0 0.00 0.00 0.00 50 1013.9
20260507110931 56 104 1.0 1.0 0.00 0.00 0.00 48 1014.0
20260507110427 56 105 0.0 0.0 0.00 0.00 0.00 46 1013.8
20260507105924 57 106 0.0 0.0 0.00 0.00 0.00 45 1013.9
20260507105421 57 106 0.0 0.0 0.00 0.00 0.00 43 1013.9
20260507104918 58 108 0.0 0.0 0.00 0.00 0.00 42 1013.6
20260507104415 58 108 0.0 0.0 0.00 0.00 0.00 41 1013.6
20260507103910 58 106 1.0 1.0 0.00 0.00 0.00 41 1013.5
20260507103407 58 129 1.0 1.0 0.00 0.00 0.00 41 1013.6
20260507102903 56 122 1.0 1.0 0.00 0.00 0.00 45 1013.6
20260507102400 55 98 0.0 0.0 0.00 0.00 0.00 50 1013.5
20260507101856 54 93 0.0 0.0 0.00 0.00 0.00 55 1013.8
20260507101356 54 93 0.0 0.0 0.00 0.00 0.00 55 1013.4
20260507100854 55 93 0.0 0.0 0.00 0.00 0.00 55 1014.0
20260507100351 55 93 0.0 0.0 0.00 0.00 0.00 54 1013.8
20260507095849 55 93 0.0 0.0 0.00 0.00 0.00 53 1013.6
20260507095345 55 93 0.0 0.0 0.00 0.00 0.00 53 1014.0
20260507094843 56 93 0.0 0.0 0.00 0.00 0.00 52 1014.0
20260507094339 56 93 1.0 0.0 0.00 0.00 0.00 51 1013.8
20260507093837 56 84 0.0 0.0 0.00 0.00 0.00 52 1013.8
20260507093335 56 84 0.0 0.0 0.00 0.00 0.00 51 1013.8
20260507092833 56 84 0.0 0.0 0.00 0.00 0.00 51 1013.9
20260507092329 57 84 0.0 0.0 0.00 0.00 0.00 51 1014.0
20260507091825 57 84 0.0 0.0 0.00 0.00 0.00 49 1014.0
20260507091322 57 84 0.0 0.0 0.00 0.00 0.00 50 1014.0
20260507090817 57 84 0.0 0.0 0.00 0.00 0.00 51 1014.1
20260507090314 57 84 0.0 0.0 0.00 0.00 0.00 48 1014.0
20260507085811 57 84 0.0 0.0 0.00 0.00 0.00 47 1014.1
20260507085308 58 84 0.0 0.0 0.00 0.00 0.00 46 1014.3
20260507084805 57 85 0.0 0.0 0.00 0.00 0.00 46 1014.2
20260507084301 57 86 0.0 0.0 0.00 0.00 0.00 49 1014.1
20260507083759 57 87 0.0 0.0 0.00 0.00 0.00 51 1013.9
20260507083255 57 87 0.0 0.0 0.00 0.00 0.00 51 1014.3
20260507082751 57 87 0.0 0.0 0.00 0.00 0.00 51 1014.0
20260507082247 57 87 0.0 0.0 0.00 0.00 0.00 51 1014.0
20260507081744 57 87 0.0 0.0 0.00 0.00 0.00 52 1014.1
20260507081240 57 87 0.0 0.0 0.00 0.00 0.00 51 1014.1
20260507080737 58 87 0.0 0.0 0.00 0.00 0.00 50 1014.1
20260507080233 58 87 0.0 0.0 0.00 0.00 0.00 51 1014.2
20260507075729 58 87 0.0 0.0 0.00 0.00 0.00 49 1014.2
20260507075225 58 87 0.0 0.0 0.00 0.00 0.00 50 1014.0
20260507074721 59 87 0.0 0.0 0.00 0.00 0.00 50 1014.0
20260507074220 59 87 0.0 0.0 0.00 0.00 0.00 49 1014.1
20260507073716 59 87 0.0 0.0 0.00 0.00 0.00 49 1014.0
20260507073213 59 87 0.0 0.0 0.00 0.00 0.00 49 1013.9
20260507072711 59 87 0.0 0.0 0.00 0.00 0.00 50 1014.0
20260507072208 59 87 0.0 0.0 0.00 0.00 0.00 49 1014.0
20260507071705 59 87 0.0 0.0 0.00 0.00 0.00 49 1014.1
20260507071201 60 87 0.0 0.0 0.00 0.00 0.00 47 1014.0
20260507070659 60 87 0.0 0.0 0.00 0.00 0.00 47 1014.1
20260507070155 60 87 0.0 0.0 0.00 0.00 0.00 47 1014.1
20260507065651 60 87 0.0 0.0 0.00 0.00 0.00 46 1014.2
20260507065149 60 87 0.0 0.0 0.00 0.00 0.00 45 1014.2
20260507064646 60 86 0.0 0.0 0.00 0.00 0.00 45 1014.2
20260507064144 60 86 1.0 1.0 0.00 0.00 0.00 46 1014.1
20260507063642 60 56 0.0 0.0 0.00 0.00 0.00 45 1014.0
20260507063138 60 345 0.0 0.0 0.00 0.00 0.00 45 1013.6
20260507062635 60 345 0.0 0.0 0.00 0.00 0.00 45 1014.1
20260507062133 61 345 0.0 0.0 0.00 0.00 0.00 44 1014.1
20260507061631 61 345 0.0 0.0 0.00 0.00 0.00 42 1014.0
20260507061128 62 345 0.0 0.0 0.00 0.00 0.00 42 1013.9
20260507060626 62 345 0.0 0.0 0.00 0.00 0.00 42 1014.0
20260507060122 61 345 0.0 0.0 0.00 0.00 0.00 42 1013.9
20260507055618 60 345 1.0 1.0 0.00 0.00 0.00 42 1013.8
20260507055114 60 345 0.0 0.0 0.00 0.00 0.00 43 1013.6
20260507054610 60 345 0.0 0.0 0.00 0.00 0.00 43 1013.9
20260507054107 60 345 0.0 0.0 0.00 0.00 0.00 42 1014.0
20260507053605 60 345 0.0 0.0 0.00 0.00 0.00 40 1013.8
20260507053104 60 345 0.0 0.0 0.00 0.00 0.00 42 1013.6
20260507052601 60 345 0.0 0.0 0.00 0.00 0.00 38 1013.8
20260507052058 61 345 0.0 0.0 0.00 0.00 0.00 40 1013.6
20260507051555 61 345 0.0 0.0 0.00 0.00 0.00 37 1013.6
20260507051052 62 345 0.0 0.0 0.00 0.00 0.00 36 1013.8
20260507050549 62 345 0.0 0.0 0.00 0.00 0.00 34 1013.6
20260507050045 64 345 0.0 0.0 0.00 0.00 0.00 34 1013.5
20260507045542 64 345 0.0 0.0 0.00 0.00 0.00 33 1013.2
20260507045039 65 345 0.0 0.0 0.00 0.00 0.00 32 1013.3
20260507044535 65 345 0.0 0.0 0.00 0.00 0.00 30 1013.6
20260507044033 66 345 0.0 0.0 0.00 0.00 0.00 30 1013.5
20260507043528 66 345 0.0 0.0 0.00 0.00 0.00 27 1013.3
20260507043026 67 345 0.0 0.0 0.00 0.00 0.00 27 1013.3
20260507042522 68 345 0.0 0.0 0.00 0.00 0.00 26 1013.3
20260507042017 68 345 0.0 0.0 0.00 0.00 0.00 25 1013.4
20260507041515 69 345 1.0 0.0 0.00 0.00 0.00 24 1013.1
20260507041011 70 317 0.0 0.0 0.00 0.00 0.00 24 1013.3
20260507040507 70 315 1.0 0.0 0.00 0.00 0.00 23 1013.1
20260507040004 70 299 0.0 0.0 0.00 0.00 0.00 23 1013.2
20260507035500 71 305 1.0 1.0 0.00 0.00 0.00 22 1013.0
20260507034956 71 280 2.0 3.0 0.00 0.00 0.00 22 1013.1
20260507034453 71 339 2.0 2.0 0.00 0.00 0.00 22 1013.0
20260507033951 71 313 0.0 0.0 0.00 0.00 0.00 22 1012.8
20260507033449 71 303 3.0 6.0 0.00 0.00 0.00 21 1012.8
20260507032946 71 318 0.0 1.0 0.00 0.00 0.00 21 1012.8
20260507032443 72 271 1.0 1.0 0.00 0.00 0.00 21 1012.7
20260507031939 72 318 0.0 0.0 0.00 0.00 0.00 21 1012.8
20260507031435 72 288 2.0 2.0 0.00 0.00 0.00 20 1012.8
20260507030932 72 317 2.0 2.0 0.00 0.00 0.00 21 1012.9
20260507030430 72 302 1.0 1.0 0.00 0.00 0.00 21 1012.7
20260507025927 72 301 1.0 2.0 0.00 0.00 0.00 21 1012.7
20260507025424 73 307 2.0 2.0 0.00 0.00 0.00 20 1012.5
20260507024922 73 291 3.0 3.0 0.00 0.00 0.00 20 1012.2
20260507024419 73 298 0.0 0.0 0.00 0.00 0.00 20 1012.4
20260507023914 73 295 1.0 1.0 0.00 0.00 0.00 20 1012.4
20260507023412 73 328 1.0 1.0 0.00 0.00 0.00 20 1012.1
20260507022909 74 302 4.0 6.0 0.00 0.00 0.00 19 1012.5
20260507022405 74 260 2.0 3.0 0.00 0.00 0.00 19 1012.5
20260507021901 74 313 3.0 3.0 0.00 0.00 0.00 20 1012.2
20260507021356 74 298 2.0 2.0 0.00 0.00 0.00 20 1012.1
20260507020855 75 301 1.0 1.0 0.00 0.00 0.00 20 1012.4
20260507020351 75 301 3.0 5.0 0.00 0.00 0.00 19 1012.4
20260507015848 75 309 2.0 2.0 0.00 0.00 0.00 20 1012.0
20260507015346 76 292 2.0 2.0 0.00 0.00 0.00 20 1012.1
20260507014843 77 280 2.0 2.0 0.00 0.00 0.00 19 1012.1
20260507014339 77 300 5.0 7.0 0.00 0.00 0.00 19 1011.9
20260507013836 78 321 2.0 2.0 0.00 0.00 0.00 19 1012.1
20260507013333 78 316 2.0 2.0 0.00 0.00 0.00 19 1012.5
20260507012831 79 341 0.0 0.0 0.00 0.00 0.00 19 1012.1
20260507012326 79 319 1.0 1.0 0.00 0.00 0.00 19 1012.0
20260507011823 79 283 2.0 2.0 0.00 0.00 0.00 19 1012.1
20260507011320 79 308 3.0 3.0 0.00 0.00 0.00 19 1011.9
20260507010820 80 302 1.0 2.0 0.00 0.00 0.00 19 1012.0
20260507010315 80 23 1.0 1.0 0.00 0.00 0.00 19 1012.1
20260507005813 80 8 1.0 1.0 0.00 0.00 0.00 19 1012.0
20260507005310 80 315 1.0 1.0 0.00 0.00 0.00 19 1012.1
20260507004807 80 16 3.0 5.0 0.00 0.00 0.00 19 1012.0
20260507004304 80 303 3.0 5.0 0.00 0.00 0.00 18 1012.0
20260507003801 81 309 3.0 3.0 0.00 0.00 0.00 19 1012.0
20260507003256 80 303 3.0 5.0 0.00 0.00 0.00 19 1012.0
20260507002752 80 352 3.0 5.0 0.00 0.00 0.00 18 1012.0
20260507002248 80 26 3.0 3.0 0.00 0.00 0.00 19 1011.8
20260507001745 81 10 2.0 2.0 0.00 0.00 0.00 18 1012.1
20260507001242 81 2 3.0 3.0 0.00 0.00 0.00 18 1011.6
20260507000738 81 286 3.0 3.0 0.00 0.00 0.00 18 1012.1
20260507000234 81 323 2.0 2.0 0.00 0.00 0.00 19 1011.9
20260506235731 81 352 5.0 8.0 0.00 0.00 0.00 18 1012.0
20260506235226 81 292 2.0 5.0 0.00 0.00 0.00 19 1012.1
20260506234724 82 355 3.0 3.0 0.00 0.00 0.00 18 1011.9
20260506234221 82 22 1.0 1.0 0.00 0.00 0.00 18 1011.9
20260506233719 81 354 4.0 6.0 0.00 0.00 0.00 18 1012.2
20260506233215 80 3 5.0 7.0 0.00 0.00 0.00 18 1011.9
20260506232711 81 311 2.0 2.0 0.00 0.00 0.00 19 1012.2
20260506232206 81 2 2.0 3.0 0.00 0.00 0.00 19 1012.1
20260506231704 81 281 1.0 1.0 0.00 0.00 0.00 18 1012.2
20260506231203 81 287 1.0 1.0 0.00 0.00 0.00 20 1012.1
20260506230658 81 318 4.0 5.0 0.00 0.00 0.00 18 1012.2
20260506230155 81 298 3.0 5.0 0.00 0.00 0.00 18 1012.2
20260506225652 81 258 4.0 6.0 0.00 0.00 0.00 19 1012.4
20260506225149 81 253 2.0 2.0 0.00 0.00 0.00 19 1012.2
20260506224645 82 286 3.0 3.0 0.00 0.00 0.00 19 1012.2
20260506224142 80 277 2.0 3.0 0.00 0.00 0.00 21 1012.5
20260506223639 80 303 3.0 2.0 0.00 0.00 0.00 20 1012.5
20260506223134 80 266 3.0 5.0 0.00 0.00 0.00 21 1012.2
20260506222631 80 288 5.0 6.0 0.00 0.00 0.00 21 1012.5
20260506222128 80 302 3.0 3.0 0.00 0.00 0.00 20 1012.5
20260506221626 81 237 1.0 1.0 0.00 0.00 0.00 20 1012.6
20260506221123 82 299 4.0 6.0 0.00 0.00 0.00 20 1012.8
20260506220620 82 307 1.0 2.0 0.00 0.00 0.00 20 1012.6
20260506220115 82 214 3.0 3.0 0.00 0.00 0.00 19 1012.8
20260506215612 81 213 1.0 1.0 0.00 0.00 0.00 20 1012.8
20260506215107 82 319 2.0 2.0 0.00 0.00 0.00 20 1012.9
20260506214605 81 256 4.0 5.0 0.00 0.00 0.00 20 1012.7
20260506214102 81 355 1.0 1.0 0.00 0.00 0.00 20 1013.0
20260506213600 79 18 0.0 0.0 0.00 0.00 0.00 21 1013.3
20260506213057 79 352 2.0 3.0 0.00 0.00 0.00 21 1013.2
20260506212554 79 301 2.0 2.0 0.00 0.00 0.00 22 1013.4
20260506212048 79 234 4.0 6.0 0.00 0.00 0.00 21 1013.2
20260506211545 79 250 7.0 8.0 0.00 0.00 0.00 21 1013.5
20260506211042 78 292 2.0 2.0 0.00 0.00 0.00 23 1013.4
20260506210538 80 236 4.0 5.0 0.00 0.00 0.00 22 1013.5
20260506210035 79 290 4.0 5.0 0.00 0.00 0.00 23 1013.5
20260506205532 78 105 1.0 2.0 0.00 0.00 0.00 22 1013.6
20260506205027 78 189 1.0 1.0 0.00 0.00 0.00 23 1013.5
20260506204525 78 336 2.0 2.0 0.00 0.00 0.00 23 1013.4
20260506204022 78 297 3.0 5.0 0.00 0.00 0.00 23 1013.6
20260506203520 78 287 3.0 3.0 0.00 0.00 0.00 24 1013.9
20260506203016 79 324 2.0 2.0 0.00 0.00 0.00 25 1013.8
20260506202514 78 275 4.0 6.0 0.00 0.00 0.00 24 1014.0
20260506202010 78 281 2.0 5.0 0.00 0.00 0.00 25 1014.0
20260506201508 77 273 1.0 1.0 0.00 0.00 0.00 25 1014.0
20260506201004 78 303 1.0 2.0 0.00 0.00 0.00 26 1014.0
20260506200500 77 258 2.0 2.0 0.00 0.00 0.00 25 1014.1
20260506195956 77 216 4.0 5.0 0.00 0.00 0.00 25 1014.1
20260506195455 77 293 3.0 3.0 0.00 0.00 0.00 26 1014.1
20260506194950 76 184 1.0 2.0 0.00 0.00 0.00 27 1014.3
20260506194448 76 327 1.0 1.0 0.00 0.00 0.00 27 1014.5
20260506193944 76 357 6.0 9.0 0.00 0.00 0.00 27 1014.5
20260506193442 76 306 4.0 3.0 0.00 0.00 0.00 28 1014.4
20260506192938 76 6 0.0 1.0 0.00 0.00 0.00 28 1014.5
20260506192436 76 270 1.0 1.0 0.00 0.00 0.00 27 1014.5
20260506191932 76 331 3.0 5.0 0.00 0.00 0.00 28 1014.8
20260506191429 76 307 4.0 6.0 0.00 0.00 0.00 28 1014.7
20260506190925 75 305 5.0 6.0 0.00 0.00 0.00 28 1014.9
20260506190422 75 228 1.0 1.0 0.00 0.00 0.00 29 1014.8
20260506185919 76 262 3.0 3.0 0.00 0.00 0.00 27 1014.9